Weather History for Crosby, ND

Change the Weather History Date:

Saturday, April 26, 2014

  Actual Average (KISN) Record (KISN)
Temperature  
Mean Temperature 38 °F 48 °F  
Max Temperature 42 °F 62 °F 91 °F (1910)
Min Temperature 35 °F 34 °F 12 °F (1907)
Degree Days  
Heating Degree Days 26 17  
Month to date heating degree days 584  
Since 1 July heating degree days 8459  
Cooling Degree Days 0 0  
Month to date cooling degree days 0  
Year to date cooling degree days 0  
Moisture  
Dew Point 39 °F    
Average Humidity 98    
Maximum Humidity 100    
Minimum Humidity 81    
Precipitation  
Precipitation 0.05 in 0.04 in 0.73 in (1943)
Month to date precipitation 0.82  
Year to date precipitation 2.51  
Sea Level Pressure  
Sea Level Pressure 29.75 in    
Wind  
Wind Speed 17 mph (East)    
Max Wind Speed 34 mph    
Max Gust Speed 43 mph    
T = Trace of Precipitation, MM = Missing Value Source: NWS Daily Summary

Daily Weather History Graph

Daily Weather History Graph

Search for Another Location

Airport:

Trip Planner

Search our weather history database for the weather conditions in past years. The results will help you decide how hot, cold, wet, or windy it might be!

Date:

Astronomy

Apr. 26, 2014 Rise Set
Actual Time 6:41 AM CDT 9:01 PM CDT
Civil Twilight 6:06 AM CDT 9:36 PM CDT
Nautical Twilight 5:22 AM CDT 10:20 PM CDT
Astronomical Twilight 4:33 AM CDT 11:10 PM CDT
Moon 5:22 AM CDT (4/26) 6:19 PM CDT (4/26)
Length of Visible Light 15h 30m
Length of Day
14h 20m
Waning Crescent, 8% of the Moon is Illuminated
Apr 26
Waning Crescent
Apr 29
New
May 6
First Quarter
May 14
Full
May 21
Last Quarter

Hourly Weather History & Observations

Time (CDT) Temp. Windchill Dew Point Humidity Pressure Visibility Wind Dir Wind Speed Gust Speed Precip Events Conditions
12:15 AM 41.0 °F 33.1 °F 41.0 °F 100% 29.82 in - East 15.0 mph 20.7 mph N/A   Overcast
12:35 AM 41.0 °F 33.5 °F 41.0 °F 100% 29.83 in - East 13.8 mph - N/A   Overcast
12:55 AM 41.0 °F 33.1 °F 41.0 °F 100% 29.83 in - East 15.0 mph 20.7 mph N/A   Overcast
1:15 AM 39.2 °F 31.2 °F 39.2 °F 100% 29.83 in - East 13.8 mph - N/A   Overcast
1:35 AM 39.2 °F 31.6 °F 39.2 °F 100% 29.82 in - East 12.7 mph - N/A   Overcast
1:55 AM 39.2 °F 31.2 °F 39.2 °F 100% 29.83 in - East 13.8 mph - N/A   Overcast
2:15 AM 39.2 °F 32.0 °F 39.2 °F 100% 29.81 in - East 11.5 mph - N/A   Overcast
2:35 AM 39.2 °F 30.8 °F 39.2 °F 100% 29.81 in - East 15.0 mph 20.7 mph N/A   Overcast
2:55 AM 39.2 °F 32.5 °F 39.2 °F 100% 29.81 in - East 10.4 mph - N/A   Overcast
3:15 AM 39.2 °F 32.0 °F 39.2 °F 100% 29.81 in - East 11.5 mph - N/A   Overcast
3:55 AM 37.4 °F 29.3 °F 37.4 °F 100% 29.81 in - East 12.7 mph - N/A   Overcast
4:15 AM 37.4 °F 29.8 °F 37.4 °F 100% 29.81 in - East 11.5 mph - N/A   Overcast
4:35 AM 37.4 °F 30.8 °F 37.4 °F 100% 29.81 in - East 9.2 mph - N/A   Overcast
4:55 AM 37.4 °F 30.3 °F 37.4 °F 100% 29.81 in - East 10.4 mph - N/A   Mostly Cloudy
5:15 AM 37.4 °F 29.8 °F 37.4 °F 100% 29.81 in - East 11.5 mph - N/A   Overcast
5:35 AM 37.4 °F 30.3 °F 37.4 °F 100% 29.81 in - East 10.4 mph - N/A   Overcast
5:55 AM 37.4 °F 29.3 °F 37.4 °F 100% 29.80 in - East 12.7 mph - N/A   Unknown
6:15 AM 35.6 °F 27.1 °F 35.6 °F 100% 29.79 in - East 12.7 mph - N/A   Mostly Cloudy
6:35 AM 35.6 °F 26.6 °F 35.6 °F 100% 29.78 in - East 13.8 mph - N/A   Unknown
6:55 AM 35.6 °F 27.5 °F 35.6 °F 100% 29.77 in - East 11.5 mph - N/A   Unknown
7:15 AM 35.6 °F 28.0 °F 35.6 °F 100% 29.77 in - East 10.4 mph - N/A   Unknown
7:35 AM 35.6 °F 25.9 °F 35.6 °F 100% 29.77 in - East 16.1 mph - N/A   Unknown
7:55 AM 35.6 °F 26.2 °F 35.6 °F 100% 29.77 in - East 15.0 mph 19.6 mph N/A   Unknown
8:15 AM 37.4 °F 28.2 °F 37.4 °F 100% 29.77 in - East 16.1 mph - N/A   Unknown
8:35 AM 37.4 °F 28.2 °F 37.4 °F 100% 29.77 in - East 16.1 mph - N/A   Unknown
8:55 AM 37.4 °F 28.2 °F 37.4 °F 100% 29.77 in - East 16.1 mph - N/A   Unknown
9:15 AM 39.2 °F 30.8 °F 39.2 °F 100% 29.77 in - East 15.0 mph - N/A   Unknown
9:35 AM 41.0 °F 32.8 °F 39.2 °F 93% 29.77 in - East 16.1 mph - N/A   Unknown
9:55 AM 41.0 °F 32.8 °F 39.2 °F 93% 29.75 in - East 16.1 mph - N/A   Unknown
10:15 AM 41.0 °F 33.1 °F 37.4 °F 87% 29.76 in - East 15.0 mph 21.9 mph N/A   Unknown
10:35 AM 41.0 °F 32.2 °F 37.4 °F 87% 29.75 in - East 18.4 mph 21.9 mph N/A   Unknown
10:55 AM 41.0 °F 32.5 °F 37.4 °F 87% 29.74 in - East 17.3 mph 24.2 mph N/A   Unknown
11:15 AM 42.8 °F 34.5 °F 37.4 °F 81% 29.75 in - East 18.4 mph 25.3 mph N/A   Mostly Cloudy
11:55 AM 41.0 °F 34.3 °F 39.2 °F 93% 29.77 in - East 11.5 mph - N/A   Overcast
12:15 PM 41.0 °F 33.5 °F 41.0 °F 100% 29.77 in - ESE 13.8 mph - N/A Rain Light Rain
12:35 PM 41.0 °F 33.1 °F 41.0 °F 100% 29.77 in - ESE 15.0 mph - 0.01 in Rain Light Rain
12:55 PM 39.2 °F 30.8 °F 39.2 °F 100% 29.77 in - East 15.0 mph 21.9 mph 0.02 in Rain Light Rain
1:15 PM 39.2 °F 30.8 °F 39.2 °F 100% 29.76 in - ESE 15.0 mph - N/A Rain Light Rain
1:35 PM 41.0 °F 32.5 °F 41.0 °F 100% 29.75 in - East 17.3 mph 21.9 mph 0.01 in Rain Light Rain
1:55 PM 39.2 °F 29.8 °F 39.2 °F 100% 29.75 in - East 18.4 mph - 0.03 in Rain Light Rain
2:15 PM 39.2 °F 29.0 °F 39.2 °F 100% 29.74 in - East 21.9 mph 28.8 mph N/A Rain Light Rain
2:35 PM 39.2 °F 29.0 °F 39.2 °F 100% 29.73 in - East 21.9 mph 29.9 mph N/A Rain Light Rain
2:55 PM 39.2 °F 28.7 °F 39.2 °F 100% 29.72 in - East 23.0 mph 29.9 mph N/A   Unknown
3:15 PM 41.0 °F 30.2 °F 41.0 °F 100% 29.71 in - East 27.6 mph 32.2 mph N/A   Overcast
3:35 PM 41.0 °F 30.2 °F 41.0 °F 100% 29.70 in - East 27.6 mph 34.5 mph N/A   Unknown
3:55 PM 41.0 °F 30.5 °F 41.0 °F 100% 29.70 in - East 26.5 mph 34.5 mph N/A   Unknown
4:15 PM 41.0 °F 30.5 °F 41.0 °F 100% 29.70 in - East 26.5 mph 34.5 mph N/A   Unknown
4:35 PM 41.0 °F 29.8 °F 41.0 °F 100% 29.69 in - East 29.9 mph 39.1 mph N/A   Unknown
4:55 PM 42.8 °F 32.5 °F 42.8 °F 100% 29.68 in - East 28.8 mph 34.5 mph N/A   Unknown
5:15 PM 42.8 °F 32.9 °F 42.8 °F 100% 29.68 in - East 26.5 mph 39.1 mph N/A   Unknown
5:35 PM 42.8 °F 32.7 °F 42.8 °F 100% 29.68 in - East 27.6 mph 38.0 mph N/A   Unknown
5:55 PM 41.0 °F 30.2 °F 41.0 °F 100% 29.69 in - East 27.6 mph 36.8 mph N/A   Unknown
6:15 PM 41.0 °F 30.7 °F 41.0 °F 100% 29.69 in - East 25.3 mph 35.7 mph N/A   Unknown
6:35 PM 42.8 °F 33.3 °F 41.0 °F 93% 29.70 in - East 24.2 mph 34.5 mph N/A   Overcast
6:55 PM 42.8 °F 34.5 °F 41.0 °F 93% 29.70 in - East 18.4 mph 39.1 mph N/A   Overcast
7:15 PM 42.8 °F 33.5 °F 42.8 °F 100% 29.69 in - East 23.0 mph 32.2 mph N/A   Overcast
7:35 PM 42.8 °F 33.5 °F 42.8 °F 100% 29.69 in - East 23.0 mph 29.9 mph N/A   Unknown
7:55 PM 42.8 °F 33.1 °F 41.0 °F 93% 29.69 in - East 25.3 mph 35.7 mph N/A   Overcast
8:15 PM 42.8 °F 32.9 °F 41.0 °F 93% 29.69 in - East 26.5 mph 35.7 mph N/A   Mostly Cloudy
8:35 PM 42.8 °F 33.1 °F 41.0 °F 93% 29.69 in - East 25.3 mph 35.7 mph N/A   Overcast
8:55 PM 41.0 °F 30.7 °F 41.0 °F 100% 29.69 in - East 25.3 mph 33.4 mph N/A   Overcast
9:15 PM 41.0 °F 30.7 °F 41.0 °F 100% 29.69 in - East 25.3 mph 34.5 mph N/A   Overcast
9:35 PM 41.0 °F 29.7 °F 39.2 °F 93% 29.69 in - East 31.1 mph 39.1 mph N/A   Overcast
9:55 PM 41.0 °F 30.0 °F 39.2 °F 93% 29.69 in - East 28.8 mph 38.0 mph N/A   Overcast
10:15 PM 41.0 °F 30.0 °F 39.2 °F 93% 29.70 in - East 28.8 mph 34.5 mph N/A   Overcast
10:35 PM 41.0 °F 29.1 °F 39.2 °F 93% 29.69 in - East 34.5 mph 40.3 mph N/A   Overcast
10:55 PM 41.0 °F 29.3 °F 39.2 °F 93% 29.69 in - East 33.4 mph 39.1 mph N/A   Unknown
11:15 PM 41.0 °F 29.7 °F 39.2 °F 93% 29.69 in - East 31.1 mph 42.6 mph N/A   Unknown
11:35 PM 41.0 °F 30.9 °F 41.0 °F 100% 29.69 in - East 24.2 mph 38.0 mph N/A   Unknown
11:55 PM 41.0 °F 30.9 °F 41.0 °F 100% 29.69 in - East 24.2 mph 35.7 mph N/A   Unknown